TimeMDT,TemperatureF,Dew PointF,Humidity,Sea Level PressureIn,VisibilityMPH,Wind Direction,Wind SpeedMPH,Gust SpeedMPH,PrecipitationIn,Events,Conditions,WindDirDegrees,DateUTC
12:15 AM,41.0,32.0,70,30.02,10.0,West,9.2,-,N/A,,Clear,280,2013-04-21 06:15:00
12:35 AM,37.4,32.0,81,30.04,10.0,WNW,3.5,-,N/A,,Clear,290,2013-04-21 06:35:00
12:55 AM,41.0,33.8,76,30.03,10.0,NNW,10.4,-,N/A,,Scattered Clouds,330,2013-04-21 06:55:00
1:15 AM,41.0,33.8,76,30.03,10.0,NW,8.1,-,N/A,,Clear,320,2013-04-21 07:15:00
1:35 AM,41.0,32.0,70,30.03,10.0,NW,6.9,-,N/A,,Scattered Clouds,310,2013-04-21 07:35:00
1:54 AM,41.0,33.8,76,30.03,10.0,NNW,8.1,-,N/A,,Scattered Clouds,330,2013-04-21 07:54:00
2:15 AM,41.0,32.0,70,30.02,10.0,Calm,Calm,-,N/A,,Clear,0,2013-04-21 08:15:00
2:35 AM,41.0,32.0,70,30.02,10.0,Calm,Calm,-,N/A,,Scattered Clouds,0,2013-04-21 08:35:00
2:55 AM,39.2,32.0,75,30.02,10.0,Calm,Calm,-,N/A,,Clear,0,2013-04-21 08:55:00
3:15 AM,37.4,32.0,81,30.02,10.0,Calm,Calm,-,N/A,,Clear,0,2013-04-21 09:15:00
3:35 AM,37.4,32.0,81,30.02,10.0,Calm,Calm,-,N/A,,Clear,0,2013-04-21 09:35:00
3:55 AM,39.2,32.0,75,30.02,10.0,East,4.6,-,N/A,,Clear,80,2013-04-21 09:55:00
4:15 AM,42.8,32.0,66,30.02,10.0,SE,3.5,-,N/A,,Clear,130,2013-04-21 10:15:00
4:35 AM,42.8,30.2,61,30.02,10.0,WSW,4.6,-,N/A,,Clear,250,2013-04-21 10:35:00
4:55 AM,41.0,26.6,57,30.03,10.0,West,4.6,-,N/A,,Clear,270,2013-04-21 10:55:00
5:15 AM,39.2,24.8,56,30.03,10.0,West,5.8,-,N/A,,Clear,280,2013-04-21 11:15:00
5:35 AM,41.0,23.0,49,30.03,10.0,West,8.1,-,N/A,,Clear,270,2013-04-21 11:35:00
5:55 AM,39.2,23.0,52,30.04,10.0,WNW,5.8,-,N/A,,Clear,300,2013-04-21 11:55:00
6:47 AM,44.6,19.4,37,30.05,50.0,WSW,4.6,-,N/A,,Partly Cloudy,250,2013-04-21 12:47:00
7:48 AM,46.4,24.8,43,30.07,50.0,Variable,3.5,-,N/A,,Partly Cloudy,0,2013-04-21 13:48:00
8:50 AM,50.0,23.0,35,30.07,60.0,Variable,4.6,-,N/A,,Mostly Cloudy,0,2013-04-21 14:50:00
9:49 AM,51.8,17.6,26,30.07,60.0,Calm,Calm,-,N/A,,Mostly Cloudy,0,2013-04-21 15:49:00
10:47 AM,53.6,17.6,24,30.08,70.0,North,5.8,-,N/A,,Mostly Cloudy,360,2013-04-21 16:47:00
11:47 AM,55.4,17.6,23,30.06,60.0,NNW,5.8,-,N/A,,Mostly Cloudy,340,2013-04-21 17:47:00
12:47 PM,59.0,10.4,15,30.03,70.0,WNW,12.7,-,N/A,,Mostly Cloudy,300,2013-04-21 18:47:00
1:50 PM,59.0,12.2,16,30.02,70.0,NNW,10.4,-,N/A,,Mostly Cloudy,330,2013-04-21 19:50:00
2:46 PM,62.6,8.6,12,30.00,70.0,NNW,9.2,18.4,N/A,,Mostly Cloudy,340,2013-04-21 20:46:00
3:47 PM,59.0,10.4,15,30.00,70.0,NW,15.0,24.2,N/A,,Mostly Cloudy,320,2013-04-21 21:47:00
4:47 PM,57.2,12.2,17,29.99,60.0,North,13.8,-,N/A,,Mostly Cloudy,350,2013-04-21 22:47:00
5:52 PM,57.2,15.8,20,29.99,40.0,Variable,6.9,-,N/A,,Mostly Cloudy,0,2013-04-21 23:52:00
6:41 PM,55.4,19.4,25,30.00,40.0,NNW,13.8,23.0,N/A,,Mostly Cloudy,340,2013-04-22 00:41:00
6:46 PM,55.4,19.4,25,30.01,40.0,NNW,12.7,23.0,N/A,,Mostly Cloudy,340,2013-04-22 00:46:00
7:46 PM,53.6,21.2,28,30.00,30.0,NNE,13.8,-,N/A,,Mostly Cloudy,20,2013-04-22 01:46:00
8:48 PM,50.0,28.4,43,30.02,20.0,East,8.1,-,N/A,,Mostly Cloudy,90,2013-04-22 02:48:00
9:49 PM,48.2,30.2,50,30.03,20.0,Calm,Calm,-,N/A,,Mostly Cloudy,0,2013-04-22 03:49:00
11:15 PM,44.6,30.2,57,29.99,10.0,WSW,3.5,-,N/A,,Clear,240,2013-04-22 05:15:00
11:35 PM,44.6,28.4,53,29.99,10.0,WSW,3.5,-,N/A,,Clear,240,2013-04-22 05:35:00
11:55 PM,42.8,28.4,57,29.98,10.0,WSW,4.6,-,N/A,,Clear,250,2013-04-22 05:55:00